Regional Weather Roundup
Issued by NWS

Home | Current Version | Previous Version | Text Only | Print | Product List | Glossary Off
Versions: 1 2 3 4 5 6 7 8 9 10 11 12 13 14 15 16 17 18 19 20 21 22 23 24 25 26 27 28 29 30 31 32 33 34 35 36 37 38 39 40 41 42 43 44 45 46 47 48 49 50

598
ASUS43 KOAX 232210
RWRNE

WEATHER ROUNDUP FOR NEBRASKA
NATIONAL WEATHER SERVICE OMAHA NE
500 PM CDT MON APR 23 2018

NOTES: SATELLITE DATA IS BEING USED TO AUGMENT CLOUD COVER ABOVE
       12000 FEET.
       "FAIR" INDICATES FEW OR NO CLOUDS BELOW 12,000 FEET WITH NO
       SIGNIFICANT WEATHER AND/OR OBSTRUCTIONS TO VISIBILITY.


NEZ001>004-019>022-054>056-232300-
NEBRASKA PANHANDLE

CITY           SKY/WX    TMP DP  RH WIND       PRES   REMARKS
SCOTTSBLUFF    CLOUDY    67  42  40 SE18      29.97F
ALLIANCE       MOSUNNY   66  41  40 S15       30.04R
CHADRON        CLOUDY    67  40  37 S14       29.99R
GORDON         FAIR      67  38  34 S15       30.02S
KIMBALL        CLOUDY    66  39  37 S12G21    30.02F
SIDNEY         MOSUNNY   65  39  38 SE14G24   30.04R
$$

NEZ057>060-069>072-079>082-232300-
SOUTHWEST NEBRASKA

CITY           SKY/WX    TMP DP  RH WIND       PRES   REMARKS
NORTH PLATTE   MOSUNNY   69  42  37 S14G22    30.04F
IMPERIAL       MOSUNNY   68  37  32 SE16G25   30.02F
LEXINGTON      SUNNY     69  39  32 SE7G17    30.06F
MCCOOK         MOSUNNY   69  41  36 SE15G23   30.05F
OGALLALA       MOSUNNY   67  37  33 S14G22    30.04R
$$

NEZ005>010-023>029-035>040-094-232300-
NORTH CENTRAL NEBRASKA

CITY           SKY/WX    TMP DP  RH WIND       PRES   REMARKS
VALENTINE      PTSUNNY   70  38  31 MISG      30.04F
AINSWORTH      MOSUNNY   67  39  35 S14       30.06F
BROKEN BOW     PTSUNNY   69  40  34 SE12G17   30.06F
O`NEILL        CLOUDY    71  34  25 SE8       30.08F
ORD            PTSUNNY   69  37  30 SE7G23    30.06F
THEDFORD       MOSUNNY   68  40  36 S18       30.06F
$$

NEZ041-046>049-061>064-073>077-083>087-232300-
SOUTH CENTRAL NEBRASKA

CITY           SKY/WX    TMP DP  RH WIND       PRES   REMARKS
GRAND ISLAND   SUNNY     72  39  30 VRB3      30.07F
AURORA         MOSUNNY   71  36  27 S8        30.07F
HASTINGS       MOSUNNY   69  38  32 S8        30.07F
HEBRON         SUNNY     73  32  22 E5        30.06F
HOLDREGE       MOSUNNY   68  40  36 SE7       30.07F
KEARNEY        SUNNY     68  38  33 SE7       30.08F
YORK             N/A     72  34  25 CALM      30.07F
$$

NEZ011>018-030>034-042>045-232300-
NORTHEAST NEBRASKA

CITY           SKY/WX    TMP DP  RH WIND       PRES   REMARKS
NORFOLK        SUNNY     71  31  22 VRB3      30.07F
ALBION         SUNNY     71  36  27 SE3       30.08F
BLAIR          SUNNY     75  31  20 NE6       30.08S
COLUMBUS       SUNNY     71  37  28 NE6       30.08F
FREMONT        SUNNY     74  30  19 SE6       30.08F
TEKAMAH        SUNNY     74  28  18 N6        30.07F
WAYNE          SUNNY     71  24  17 CALM      30.08F
$$

NEZ050>053-065>068-078-088>093-232300-
SOUTHEAST NEBRASKA

CITY           SKY/WX    TMP DP  RH WIND       PRES   REMARKS
LINCOLN        SUNNY     75  29  18 N5        30.08F
OMAHA EPPLEY   MOSUNNY   75  28  17 E8        30.06F
BEATRICE       MOSUNNY   74  33  22 NE3       30.06F
FALLS CITY     SUNNY     75  28  17 E8        30.04F
NEBRASKA CITY  SUNNY     74  33  22 E8        30.06F
PLATTSMOUTH    SUNNY     74  26  17 N5        30.06F
$$

NEZ044-045-051>053-067-232300-
OMAHA AREA

CITY           SKY/WX    TMP DP  RH WIND       PRES   REMARKS
OMAHA EPPLEY   MOSUNNY   75  28  17 E8        30.06F
BLAIR          SUNNY     75  31  20 NE6       30.08S
FREMONT        SUNNY     74  30  19 SE6       30.08F
MILLARD        SUNNY     74  31  20 S3        30.07F
PLATTSMOUTH    SUNNY     74  26  17 N5        30.06F
WAHOO          FAIR      74  18  12 SE6       30.08F
$$




USA.gov is the U.S. government's official web portal to all federal, state and local government web resources and services.